Burlington, VT

5:33 AM EDT on October 22, 2017 (GMT -0400)
Burlington International

Weather History for KBTV - March, 2002

Change the Weather History Date:

Friday, March 8, 2002

  Actual Average Record
Temperature  
Mean Temperature 39 °F 28 °F  
Max Temperature 50 °F 37 °F 61 °F (2000)
Min Temperature 28 °F 19 °F -10 °F (1913)
Degree Days  
Heating Degree Days 26 37  
Month to date heating degree days 308  
Since 1 July heating degree days 5718  
Cooling Degree Days 0 0  
Month to date cooling degree days 0  
Year to date cooling degree days 0  
Moisture  
Dew Point 24 °F    
Average Humidity 61    
Maximum Humidity 75    
Minimum Humidity 50    
Precipitation  
Precipitation 0.00 in 0.07 in 1.27 in (2008)
Month to date precipitation 0.53  
Year to date precipitation 4.35  
Snow  
Snow 0.00 in 0.60 in 7.30 in (1956)
Month to date snowfall 5.0  
Since 1 July snowfall 65.8  
Snow Depth -    
Sea Level Pressure  
Sea Level Pressure 30.43 in    
Wind  
Wind Speed 4 mph (South)    
Max Wind Speed 22 mph    
Max Gust Speed 30 mph    
Visibility 10 miles    
Events      
T = Trace of Precipitation, MM = Missing Value Source: NWS Daily Summary

Daily Weather History Graph

Daily Weather History Graph

Search for Another Location

Airport or City:

Trip Planner

Search our weather history database for the weather conditions in past years. The results will help you decide how hot, cold, wet, or windy it might be!

Date:

Astronomy

Mar. 08, 2002 Rise Set
Actual Time 6:17 AM EST 5:49 PM EST
Civil Twilight 5:48 AM EST 6:18 PM EST
Nautical Twilight 5:15 AM EST 6:52 PM EST
Astronomical Twilight 4:41 AM EST 7:26 PM EST
Moon 3:39 AM EST (3/8) 12:25 PM EST (3/8)
Length of Visible Light 12h 29m
Length of Day
11h 31m
Waning Crescent, 24% of the Moon is Illuminated
Mar 8
Waning Crescent
Mar 13
New
Mar 21
First Quarter
Mar 28
Full
Apr 4
Last Quarter

Hourly Weather History & Observations

Time (EST) Temp. Windchill Dew Point Humidity Pressure Visibility Wind Dir Wind Speed Gust Speed Precip Events Conditions
12:04 AM 28.4 °F 22.2 °F 19.4 °F 69% 30.46 in 10.0 mi North 5.8 mph - N/A   Overcast
12:38 AM 28.4 °F - 19.4 °F 69% 30.46 in 10.0 mi Calm Calm - N/A   Overcast
12:54 AM 28.9 °F - 21.9 °F 75% 30.48 in 10.0 mi Calm Calm - N/A   Overcast
1:54 AM 28.9 °F - 19.0 °F 67% 30.49 in 10.0 mi Calm Calm - N/A   Overcast
2:54 AM 28.9 °F - 18.0 °F 64% 30.48 in 10.0 mi Calm Calm - N/A   Overcast
3:54 AM 28.9 °F 22.8 °F 18.0 °F 64% 30.49 in 10.0 mi NW 5.8 mph - N/A   Overcast
4:54 AM 28.0 °F 20.8 °F 16.0 °F 61% 30.51 in 10.0 mi NW 6.9 mph - N/A   Overcast
5:54 AM 28.0 °F 22.8 °F 15.1 °F 58% 30.53 in 10.0 mi NW 4.6 mph - N/A   Overcast
6:54 AM 28.0 °F - 18.0 °F 66% 30.54 in 10.0 mi Calm Calm - N/A   Overcast
7:05 AM 28.4 °F - 17.6 °F 64% 30.52 in 10.0 mi Calm Calm - N/A   Overcast
7:54 AM 28.9 °F - 18.0 °F 64% 30.54 in 10.0 mi Calm Calm - N/A   Overcast
8:13 AM 28.4 °F - 17.6 °F 64% 30.52 in 10.0 mi Calm Calm - N/A   Overcast
8:54 AM 30.0 °F - 18.0 °F 61% 30.53 in 10.0 mi Calm Calm - N/A   Mostly Cloudy
9:54 AM 32.0 °F - 19.9 °F 61% 30.51 in 10.0 mi Calm Calm - N/A   Mostly Cloudy
10:54 AM 33.1 °F - 21.0 °F 61% 30.50 in 10.0 mi Calm Calm - N/A   Scattered Clouds
11:54 AM 37.9 °F 32.1 °F 23.0 °F 55% 30.46 in 10.0 mi SSW 8.1 mph - N/A   Clear
12:54 PM 41.0 °F 34.7 °F 26.1 °F 55% 30.43 in 10.0 mi South 10.4 mph - N/A   Clear
1:54 PM 44.1 °F 38.6 °F 28.0 °F 53% 30.40 in 10.0 mi South 10.4 mph - N/A   Clear
2:54 PM 46.9 °F - 30.0 °F 52% 30.37 in 10.0 mi SSE 5.8 mph - N/A   Clear
3:54 PM 48.0 °F - 30.9 °F 52% 30.33 in 10.0 mi SSE 9.2 mph - N/A   Clear
4:54 PM 48.0 °F - 32.0 °F 54% 30.33 in 10.0 mi SE 6.9 mph - N/A   Scattered Clouds
5:54 PM 42.1 °F 36.6 °F 30.9 °F 65% 30.33 in 8.0 mi ESE 9.2 mph - N/A   Clear
6:54 PM 41.0 °F - 32.0 °F 70% 30.32 in 9.0 mi Calm Calm - N/A   Partly Cloudy
7:54 PM 39.9 °F - 30.9 °F 70% 30.30 in 10.0 mi Calm Calm - N/A   Clear
8:54 PM 48.0 °F - 32.0 °F 54% 30.30 in 10.0 mi South 10.4 mph 16.1 mph N/A   Clear
9:54 PM 50.0 °F - 32.0 °F 50% 30.32 in 10.0 mi South 18.4 mph 26.5 mph N/A   Overcast
10:54 PM 50.0 °F - 32.0 °F 50% 30.34 in 10.0 mi South 19.6 mph 25.3 mph N/A   Overcast
11:54 PM 50.0 °F - 32.0 °F 50% 30.33 in 10.0 mi South 21.9 mph 29.9 mph N/A   Overcast